Weather in Selyatin

Ukraine / Chernovtci District     47°52′24″N   25°11′11″E
temp.,
°C
wind,
m/s
gust,
m/s
humid.,
%
clouds,
%
prec.,
mm/h
press.,
hPa
HPBL,
m
21 october, thu
thu2100:00+4sw357396 0.0 102188
03:00+4sw357792 0.0 101981
06:00+4ssw347835 0.0 101772
09:00+5ssw397013 0.0 1015228
12:00+12sw51545100 0.0 1010827
15:00+12wsw61644100 0.0 10101218
18:00+10wsw51554100 0.0 10101192
21:00+9wsw31365100 0.0 10111353
22 october, fri
fri2200:00+8sw1178100 0.1 101259
03:00+7ssw2485100 0.1 1013280
06:00+7w41083100 0.1 10141076
09:00+7wsw614747 0.1 1015661
12:00+10sw6104846 0.0 10151129
15:00+11wsw594471 0.0 10151450
18:00+7wsw4106880 0.0 1016696
21:00+3ssw119196 0.0 101816
23 october, sat
sat2300:00+6ssw138193 0.0 1017255
03:00+6sw2484100 0.0 1017321
06:00+5wsw387826 0.1 1017913
09:00+3w29765 0.1 1020890
12:00+7wnw485146 0.0 10211522
15:00+6wnw57478 0.0 10211377
18:00+3wnw376411 0.0 1023366
21:00−1wsw22855 0.0 102735
24 october, sun
sun2400:00−2wsw228778 0.0 102820
03:00−2wsw22865 0.0 102936
06:00−2w11855 0.0 103013
09:000w11727 0.0 103190
12:00+5nnw244411 0.0 10291414
15:00+7nnw34396 0.0 10281518
18:00+1nne22672 0.0 103128
21:00−3nnw11865 0.0 103411
25 october, mon
mon2500:00−3wnw11881 0.0 103510
03:00−3w11875 0.0 103510
06:00−3sw11790 0.0 103410
09:000sse11574 0.0 103456
12:00+7ese21321 0.0 1031541
15:00+9ese21330 0.0 1028712
18:00+2se21610 0.0 103010
21:000ssw22690 0.0 103120